Kuala Lumpur, Malaysia

10:50 AM +08 on June 23, 2017 (GMT +0800)
Kuala Lumpur International -Sepang

Weather History for WMKK - December, 2012

Change the Weather History Date:

Friday, December 7, 2012

  Actual Average Record
Temperature  
Mean Temperature 84 °F -  
Max Temperature 92 °F - - ()
Min Temperature 75 °F - - ()
Cooling Degree Days 18    
Growing Degree Days 34 (Base 50)    
Moisture  
Dew Point 76 °F    
Average Humidity 85    
Maximum Humidity 100    
Minimum Humidity 59    
Precipitation  
Precipitation 0.08 in - - ()
Sea Level Pressure  
Sea Level Pressure 29.81 in    
Wind  
Wind Speed 4 mph ()    
Max Wind Speed 12 mph    
Max Gust Speed -    
Visibility 6.0 miles    
Events Rain , Thunderstorm    
T = Trace of Precipitation, MM = Missing Value Source: Averaged Metar Reports

Daily Weather History Graph

Daily Weather History Graph

Search for Another Location

Airport or City:

Trip Planner

Search our weather history database for the weather conditions in past years. The results will help you decide how hot, cold, wet, or windy it might be!

Date:

Astronomy

Dec. 07, 2012 Rise Set
Actual Time 7:06 AM +08 7:03 PM +08
Civil Twilight 6:44 AM +08 7:26 PM +08
Nautical Twilight 6:18 AM +08 7:52 PM +08
Astronomical Twilight 5:52 AM +08 8:18 PM +08
Moon 1:10 AM +08 (12/7) 1:33 PM +08 (12/7)
Length of Visible Light 12h 41m
Length of Day
11h 57m
Last Quarter, 44% of the Moon is Illuminated
Dec 7
Last Quarter
Dec 13
New
Dec 20
First Quarter
Dec 28
Full
Jan 5
Last Quarter

Hourly Weather History & Observations

Time (+08) Temp. Heat Index Dew Point Humidity Pressure Visibility Wind Dir Wind Speed Gust Speed Precip Events Conditions
12:00 AM 78.8 °F - 75.2 °F 89% 29.83 in 6.2 mi West 3.5 mph - N/A   Mostly Cloudy
12:30 AM 77.0 °F - 75.2 °F 94% 29.83 in 6.2 mi NW 1.2 mph - N/A   Mostly Cloudy
1:00 AM 77.0 °F - 75.2 °F 94% 29.83 in 6.2 mi WNW 2.3 mph - N/A   Mostly Cloudy
1:30 AM 77.0 °F - 75.2 °F 94% 29.83 in 6.2 mi NW 1.2 mph - N/A   Mostly Cloudy
2:00 AM 76 °F - 76 °F 100% 29.84 in 2 mi Calm Calm - -   Mist
2:00 AM 77.0 °F - 75.2 °F 94% 29.83 in 6.2 mi West 3.5 mph - N/A   Mostly Cloudy
2:30 AM 77.0 °F - 75.2 °F 94% 29.83 in 6.2 mi NNW 4.6 mph - N/A   Mostly Cloudy
3:00 AM 77.0 °F - 75.2 °F 94% 29.80 in 6.2 mi NNW 5.8 mph - N/A   Mostly Cloudy
3:30 AM 77.0 °F - 75.2 °F 94% 29.80 in 6.2 mi North 4.6 mph - N/A   Mostly Cloudy
4:00 AM 77.0 °F - 75.2 °F 94% 29.80 in 6.2 mi North 2.3 mph - N/A   Mostly Cloudy
4:30 AM 77.0 °F - 75.2 °F 94% 29.80 in 6.2 mi North 2.3 mph - N/A   Mostly Cloudy
5:00 AM 76 °F - 76 °F 98% 29.81 in 2 mi Calm Calm - -   Scattered Clouds
5:00 AM 77.0 °F - 75.2 °F 94% 29.80 in 6.2 mi NNE 2.3 mph - N/A   Mostly Cloudy
5:30 AM 77.0 °F - 75.2 °F 94% 29.80 in 6.2 mi NNE 2.3 mph - N/A   Mostly Cloudy
6:00 AM 77.0 °F - 75.2 °F 94% 29.80 in 6.2 mi NE 5.8 mph - N/A   Mostly Cloudy
6:30 AM 77.0 °F - 75.2 °F 94% 29.83 in 6.2 mi NNW 2.3 mph - N/A   Mostly Cloudy
7:00 AM 77.0 °F - 75.2 °F 94% 29.83 in 6.2 mi NE 4.6 mph - N/A   Mostly Cloudy
7:30 AM 77.0 °F - 75.2 °F 94% 29.83 in 6.2 mi North 3.5 mph - N/A   Mostly Cloudy
8:00 AM 77 °F - 76 °F 95% 29.86 in 5 mi Calm Calm - -   Mist
8:00 AM 78.8 °F - 75.2 °F 89% 29.83 in 6.2 mi NNE 3.5 mph - N/A   Mostly Cloudy
8:30 AM 80.6 °F 86.2 °F 75.2 °F 84% 29.86 in 6.2 mi NNE 4.6 mph - N/A   Mostly Cloudy
9:00 AM 82.4 °F 90.9 °F 77.0 °F 84% 29.86 in 6.2 mi NNE 3.5 mph - N/A   Mostly Cloudy
9:30 AM 84.2 °F 94.1 °F 77.0 °F 79% 29.86 in 6.2 mi NE 5.8 mph - N/A   Mostly Cloudy
10:00 AM 84.2 °F 94.1 °F 77.0 °F 79% 29.86 in 6.2 mi North 4.6 mph - N/A   Mostly Cloudy
10:30 AM 86.0 °F 96.9 °F 77.0 °F 74% 29.86 in 6.2 mi NNE 4.6 mph - N/A   Mostly Cloudy
11:00 AM 88 °F - 77 °F 63% 29.88 in 9 mi West 2.3 mph - -   Haze
11:00 AM 86.0 °F 96.9 °F 77.0 °F 74% 29.86 in 6.2 mi North 3.5 mph - N/A   Mostly Cloudy
11:30 AM 87.8 °F 99.7 °F 77.0 °F 70% 29.86 in 6.2 mi NNW 4.6 mph - N/A   Mostly Cloudy
12:00 PM 87.8 °F 99.7 °F 77.0 °F 70% 29.86 in 6.2 mi NNE 6.9 mph - N/A   Mostly Cloudy
12:30 PM 91.4 °F 107.2 °F 78.8 °F 66% 29.83 in 6.2 mi East 5.8 mph - N/A   Mostly Cloudy
1:00 PM 91.4 °F 105.1 °F 77.0 °F 63% 29.80 in 6.2 mi East 4.6 mph - N/A   Mostly Cloudy
1:30 PM 93.2 °F 107.2 °F 77.0 °F 59% 29.80 in 6.2 mi East 5.8 mph - N/A   Mostly Cloudy
2:00 PM 92 °F - 79 °F 59% 29.78 in 9 mi WSW 3.5 mph - -   Partly Cloudy
2:00 PM 91.4 °F 105.1 °F 77.0 °F 63% 29.77 in 6.2 mi East 5.8 mph - N/A   Mostly Cloudy
2:30 PM 91.4 °F 105.1 °F 77.0 °F 63% 29.74 in 6.2 mi ENE 3.5 mph - N/A   Mostly Cloudy
3:00 PM 93.2 °F 107.2 °F 77.0 °F 59% 29.74 in 6.2 mi East 4.6 mph - N/A   Mostly Cloudy
3:30 PM 87.8 °F 102.5 °F 78.8 °F 75% 29.71 in 6.2 mi SW 10.4 mph - N/A   Mostly Cloudy
4:00 PM 87.8 °F 102.5 °F 78.8 °F 75% 29.71 in 6.2 mi SW 9.2 mph - N/A   Mostly Cloudy
4:30 PM 87.8 °F 102.5 °F 78.8 °F 75% 29.71 in 6.2 mi SW 5.8 mph - N/A   Mostly Cloudy
5:00 PM 87 °F - 80 °F 74% 29.72 in 6 mi West 11.5 mph - -   Haze
5:00 PM 86.0 °F 99.3 °F 78.8 °F 79% 29.71 in 5.6 mi SW 4.6 mph - N/A Thunderstorm Thunderstorm
5:30 PM 86.0 °F 101.9 °F 80.6 °F 84% 29.71 in 5.0 mi SW 6.9 mph - N/A Rain , Thunderstorm Light Thunderstorms and Rain
6:00 PM 82.4 °F 94.0 °F 80.6 °F 94% 29.74 in 1.9 mi North 5.8 mph - N/A Rain , Thunderstorm Thunderstorms and Rain
6:30 PM 77.0 °F - 75.2 °F 94% 29.77 in 1.9 mi East 11.5 mph - N/A Rain , Thunderstorm Light Thunderstorms and Rain
7:00 PM 77.0 °F - 73.4 °F 89% 29.77 in 6.2 mi South 11.5 mph - N/A Rain , Thunderstorm Light Thunderstorms and Rain
7:30 PM 77.0 °F - 73.4 °F 89% 29.80 in 6.2 mi ESE 4.6 mph - N/A Rain Light Rain
8:00 PM 78 °F - 77 °F 95% 29.83 in 9 mi NE 4.6 mph - - Thunderstorm Thunderstorm
8:00 PM 77.0 °F - 75.2 °F 94% 29.80 in 6.2 mi NE 6.9 mph - N/A   Mostly Cloudy
8:30 PM 77.0 °F - 73.4 °F 89% 29.83 in 6.2 mi NNE 4.6 mph - N/A   Mostly Cloudy
9:00 PM 77.0 °F - 73.4 °F 89% 29.83 in 6.2 mi ESE 5.8 mph - N/A   Mostly Cloudy
9:30 PM 77.0 °F - 73.4 °F 89% 29.86 in 6.2 mi SE 4.6 mph - N/A   Mostly Cloudy
10:00 PM 77.0 °F - 75.2 °F 94% 29.86 in 6.2 mi SE 3.5 mph - N/A   Mostly Cloudy
10:30 PM 77.0 °F - 75.2 °F 94% 29.86 in 6.2 mi ENE 4.6 mph - N/A   Mostly Cloudy
11:00 PM 78 °F - 76 °F 91% 29.87 in 9 mi ESE 3.5 mph - -   Scattered Clouds
11:00 PM 77.0 °F - 75.2 °F 94% 29.86 in 6.2 mi WNW 1.2 mph - N/A   Mostly Cloudy
11:30 PM 77.0 °F - 75.2 °F 94% 29.83 in 6.2 mi NE 2.3 mph - N/A   Mostly Cloudy